[[{"header":{"parameterUnit":"m.s-1","parameterCategory":1,"la1":30.2991,"la2":30.254,"lo1":-89.0895,"lo2":-89.0444,"dy":0.0017,"dx":0.0017,"nx":28,"ny":28,"refTime":"2024-12-09T09:00:00:Z","depth":0,"parameterNumber":2,"parameterNumberName":"U-component_of_WINDS"},"data":[0,0,0,0,0,0,0,0,0,0,0,0,0,0,0,0,0,0,0,0,0,0,0,0,0,0,0,0,0,0,0,0,0,0,0,0,0,0,0,0,0,0,0,0,0,0,0,0,0,0,0,0,0,0,0,0,0,0,-0.445,-0.445,0,-0.452,-0.4521,-0.4522,-0.4574,-0.4574,-0.4575,-0.4575,-0.4646,-0.4648,-0.4649,0,0,0,0,0,0,0,0,0,0,0,0,0,-0.4358,-0.436,-0.4449,-0.445,-0.4451,-0.452,-0.4521,-0.4522,-0.4574,-0.4574,-0.4575,-0.4575,-0.4646,-0.4648,-0.4649,0,0,0,0,0,0,0,0,0,0,0,0,0,-0.441,-0.436,-0.4449,-0.4485,-0.4489,-0.452,-0.4521,-0.4522,-0.4573,-0.4574,-0.4575,-0.4575,-0.4645,-0.4647,-0.465,-0.465,0,0,-0.4656,-0.4657,0,0,0,0,0,0,0,0,-0.4407,-0.4413,-0.4479,-0.4483,-0.4487,-0.4539,-0.4515,-0.4565,-0.4573,-0.4541,-0.4575,-0.4576,-0.461,-0.4615,-0.4627,-0.4653,-0.4656,-0.4656,-0.4658,-0.4659,-0.4659,0,0,0,0,0,0,0,-0.4403,-0.4411,-0.4477,-0.448,-0.4485,-0.4498,-0.4506,-0.4525,-0.4571,-0.4544,-0.4548,-0.4556,-0.4612,-0.4624,-0.4629,-0.4657,-0.4656,-0.4658,-0.466,-0.4661,-0.4686,-0.4685,0,0,0,0,0,0,-0.4394,-0.4407,-0.4475,-0.448,-0.4448,-0.4499,-0.4508,-0.4522,-0.4571,-0.4579,-0.4555,-0.4558,-0.462,-0.4626,-0.4632,-0.4634,-0.4659,-0.4661,-0.4662,-0.4686,-0.4686,-0.4685,0,0,0,0,0,0,-0.4392,-0.44,-0.4472,-0.4445,-0.4455,-0.45,-0.4515,-0.4523,-0.4535,-0.4579,-0.4588,-0.4559,-0.4621,-0.4628,-0.4645,-0.4637,-0.4662,-0.4664,-0.4687,-0.4686,-0.4685,-0.4639,0,0,0,0,0,0,-0.4389,-0.4399,-0.44,-0.4444,-0.4456,-0.4484,-0.4514,-0.4524,-0.4539,-0.4543,-0.4585,-0.4593,-0.4622,-0.4641,-0.4647,-0.4641,-0.4666,-0.4688,-0.4687,-0.4686,-0.4641,-0.4636,-0.4632,0,0,0,0,0,-0.4386,-0.4384,-0.4399,-0.4407,-0.4458,-0.4484,-0.4491,-0.4525,-0.4538,-0.4539,-0.4567,-0.4592,-0.4637,-0.4642,-0.4649,-0.4643,-0.4689,-0.4687,-0.4686,-0.4643,-0.4637,-0.4632,0,0,0,0,0,0,-0.4337,-0.439,-0.4408,-0.4421,-0.4447,-0.4493,-0.4495,-0.4518,-0.4541,-0.4544,-0.4585,-0.4594,-0.4605,-0.4627,-0.4631,-0.4646,-0.4666,-0.4666,-0.4631,-0.4626,-0.4622,-0.4616,-0.4667,0,0,0,0,0,-0.4328,-0.4345,-0.439,-0.4397,-0.4409,-0.4449,-0.4462,-0.4486,-0.4515,-0.4527,-0.4556,-0.4583,-0.4604,-0.4616,-0.4638,-0.4645,-0.4654,-0.4645,-0.464,-0.4636,-0.4635,-0.4639,-0.4635,-0.468,-0.468,-0.468,0,0,-0.4309,-0.434,-0.4348,-0.4388,-0.4411,-0.4427,-0.4459,-0.4475,-0.4486,-0.4529,-0.4546,-0.4568,-0.4602,-0.4613,-0.4619,-0.4631,-0.4625,-0.4634,-0.4631,-0.4632,-0.4637,-0.4633,-0.4629,-0.4679,-0.4679,-0.4679,0,0,-0.4282,-0.4307,-0.4315,-0.4338,-0.4373,-0.44,-0.4402,-0.4444,-0.446,-0.4478,-0.451,-0.4525,-0.4559,-0.4581,-0.4597,-0.4577,-0.46,-0.4583,-0.4559,-0.4563,-0.4559,-0.4556,-0.4548,-0.4545,-0.4582,-0.4582,-0.4582,0,-0.4253,-0.4279,-0.4316,-0.433,-0.4346,-0.4385,-0.4393,-0.4413,-0.4453,-0.4463,-0.4476,-0.4519,-0.4544,-0.4561,-0.4556,-0.4568,-0.457,-0.4578,-0.4557,-0.4554,-0.4552,-0.4545,-0.4542,-0.458,-0.458,-0.458,-0.4581,0,-0.4241,-0.4259,-0.4261,-0.4298,-0.4315,-0.4325,-0.4363,-0.4375,-0.4398,-0.4423,-0.444,-0.4472,-0.4499,-0.4505,-0.4528,-0.4525,-0.453,-0.4549,-0.457,-0.4545,-0.4538,-0.4536,-0.4576,-0.4577,-0.4578,-0.4579,0,0,-0.4185,-0.4243,-0.4243,-0.426,-0.4301,-0.4315,-0.4327,-0.4355,-0.4364,-0.439,-0.44,-0.4429,-0.4446,-0.4464,-0.4489,-0.4492,-0.4473,-0.4511,-0.4512,-0.4502,-0.4471,-0.4455,-0.4451,-0.449,-0.4489,-0.4489,-0.4467,0,-0.4163,-0.4187,-0.422,-0.4233,-0.4248,-0.4286,-0.4296,-0.4323,-0.4347,-0.4363,-0.439,-0.4408,-0.4431,-0.4442,-0.4447,-0.4475,-0.4467,-0.4477,-0.4498,-0.4499,-0.4487,-0.4448,-0.4432,-0.441,-0.4465,-0.4465,-0.4465,0,-0.4141,-0.4165,-0.4178,-0.4218,-0.4226,-0.4234,-0.4262,-0.4277,-0.4308,-0.4325,-0.4344,-0.4372,-0.4385,-0.4405,-0.4424,-0.443,-0.4441,-0.4456,-0.4456,-0.4458,-0.4479,-0.4447,-0.4404,-0.4399,-0.4461,-0.4462,-0.4462,0,-0.4096,-0.4132,-0.4145,-0.4158,-0.4205,-0.421,-0.423,-0.4261,-0.4275,-0.4299,-0.4308,-0.4334,-0.4347,-0.4366,-0.4399,-0.441,-0.4414,-0.4437,-0.4427,-0.4426,-0.4425,-0.4424,-0.4381,-0.4435,-0.4435,-0.4435,-0.4435,0,-0.4068,-0.4074,-0.4125,-0.4133,-0.4141,-0.4179,-0.4186,-0.4209,-0.4237,-0.4249,-0.4284,-0.4294,-0.4338,-0.4354,-0.438,-0.4391,-0.4397,-0.4411,-0.4417,-0.4407,-0.4404,-0.4413,-0.4415,-0.4434,-0.4434,-0.4434,-0.4435,0,-0.4019,-0.4054,-0.4069,-0.4112,-0.4123,-0.4127,-0.4163,-0.4172,-0.4198,-0.4213,-0.4218,-0.4259,-0.4279,-0.4315,-0.4345,-0.4363,-0.4368,-0.438,-0.4357,-0.4361,-0.4349,-0.4349,-0.4308,-0.4304,-0.4362,-0.4361,-0.4361,0,-0.3997,-0.4003,-0.4046,-0.4057,-0.4075,-0.4092,-0.4106,-0.4145,-0.4158,-0.4193,-0.4197,-0.422,-0.424,-0.427,-0.4302,-0.4325,-0.4337,-0.4322,-0.4341,-0.433,-0.4335,-0.4334,-0.4334,-0.4316,-0.4316,-0.4315,-0.4314,0,-0.3955,-0.3972,-0.3991,-0.4016,-0.4032,-0.4054,-0.4077,-0.4084,-0.4127,-0.4141,-0.4161,-0.4177,-0.4208,-0.423,-0.4257,-0.4278,-0.4302,-0.4308,-0.4307,-0.4295,-0.4281,-0.4287,-0.4343,-0.4309,-0.4309,-0.431,-0.431,-0.431,-0.3918,-0.3925,-0.3956,-0.3976,-0.3997,-0.4018,-0.4028,-0.4055,-0.4073,-0.4101,-0.4122,-0.4141,-0.4171,-0.4211,-0.423,-0.4245,-0.4256,-0.4255,-0.4254,-0.4253,-0.4248,-0.428,-0.425,-0.425,-0.4251,-0.4251,-0.4251,0,-0.3876,-0.3898,-0.3916,-0.3947,-0.3963,-0.3986,-0.4013,-0.4024,-0.404,-0.4066,-0.4085,-0.4109,-0.413,-0.4164,-0.4187,-0.4193,-0.4205,-0.4198,-0.4197,-0.4201,-0.4237,-0.4235,-0.4187,-0.4187,-0.4188,-0.4188,-0.4188,-0.4188,-0.3856,-0.3867,-0.3888,-0.391,-0.3932,-0.395,-0.3963,-0.3982,-0.4003,-0.4028,-0.4045,-0.4067,-0.4096,-0.4122,-0.4143,-0.4152,-0.4158,-0.4147,-0.416,-0.4193,-0.4198,-0.4204,-0.4202,-0.4149,-0.4149,-0.4122,-0.4122,-0.4122]},{"header":{"parameterUnit":"m.s-1","parameterCategory":1,"la1":30.2991,"la2":30.254,"lo1":-89.0895,"lo2":-89.0444,"dy":0.0017,"dx":0.0017,"nx":28,"ny":28,"refTime":"2024-12-09T09:00:00:Z","depth":0,"parameterNumber":3,"parameterNumberName":"V-component_of_WINDS"},"data":[0,0,0,0,0,0,0,0,0,0,0,0,0,0,0,0,0,0,0,0,0,0,0,0,0,0,0,0,0,0,0,0,0,0,0,0,0,0,0,0,0,0,0,0,0,0,0,0,0,0,0,0,0,0,0,0,0,0,3.448,3.4481,0,3.4571,3.4572,3.4573,3.4569,3.4567,3.4566,3.4565,3.4658,3.4662,3.4665,0,0,0,0,0,0,0,0,0,0,0,0,0,3.4301,3.4304,3.4479,3.4481,3.4482,3.4571,3.4572,3.4573,3.4569,3.4567,3.4566,3.4564,3.4657,3.4661,3.4666,0,0,0,0,0,0,0,0,0,0,0,0,0,3.4384,3.4305,3.4479,3.449,3.4492,3.4571,3.4572,3.4574,3.4569,3.4567,3.4565,3.4564,3.4655,3.4661,3.4666,3.4739,0,0,3.4683,3.4685,0,0,0,0,0,0,0,0,3.4379,3.439,3.4488,3.449,3.4492,3.4557,3.4543,3.4629,3.457,3.454,3.4565,3.4563,3.4626,3.4634,3.4655,3.4744,3.4748,3.4684,3.4687,3.4689,3.4691,0,0,0,0,0,0,0,3.4373,3.4386,3.4516,3.4489,3.4492,3.4491,3.45,3.456,3.4593,3.4542,3.4542,3.4553,3.4627,3.465,3.4657,3.4749,3.4683,3.4688,3.4692,3.4694,3.4904,3.4906,0,0,0,0,0,0,3.4365,3.4382,3.4513,3.4518,3.443,3.4495,3.4506,3.4538,3.4592,3.4598,3.4555,3.4553,3.4641,3.4651,3.466,3.4752,3.4689,3.4694,3.4698,3.4902,3.4905,3.4907,0,0,0,0,0,0,3.4361,3.4377,3.4509,3.445,3.4467,3.4501,3.4536,3.4541,3.4564,3.4601,3.4607,3.4573,3.464,3.4653,3.472,3.4755,3.4697,3.4702,3.4899,3.4903,3.4906,3.4933,0,0,0,0,0,0,3.4356,3.4376,3.4404,3.4451,3.447,3.4568,3.4538,3.4544,3.4573,3.4572,3.462,3.4626,3.4639,3.4712,3.4726,3.4761,3.4706,3.4896,3.4901,3.4905,3.493,3.4937,3.4944,0,0,0,0,0,3.435,3.4407,3.4405,3.4421,3.4506,3.457,3.4581,3.4596,3.4576,3.4605,3.4629,3.4624,3.4748,3.4719,3.4734,3.4772,3.4894,3.49,3.4904,3.4926,3.4936,3.4944,0,0,0,0,0,0,3.4363,3.4414,3.4412,3.4486,3.4524,3.4569,3.4606,3.4605,3.4648,3.4645,3.4661,3.4672,3.474,3.4762,3.4729,3.4847,3.4819,3.4827,3.483,3.4839,3.4846,3.4841,3.4711,0,0,0,0,0,3.4375,3.4423,3.4464,3.4525,3.4544,3.4572,3.46,3.4608,3.4648,3.4663,3.4693,3.4731,3.4779,3.481,3.4855,3.4932,3.4943,3.4965,3.4972,3.4978,3.4986,3.503,3.5041,3.4924,3.4924,3.4924,0,0,3.44,3.4433,3.4462,3.4529,3.4559,3.4608,3.4585,3.4638,3.4675,3.4671,3.4738,3.476,3.4804,3.4877,3.491,3.4897,3.502,3.4985,3.4989,3.4994,3.5036,3.5047,3.5057,3.4927,3.4927,3.4926,0,0,3.447,3.4499,3.4555,3.4586,3.4632,3.465,3.4663,3.4708,3.4723,3.479,3.4789,3.4832,3.4914,3.4946,3.4972,3.5055,3.5053,3.5069,3.5108,3.515,3.5159,3.5168,3.5199,3.521,3.5077,3.5077,3.5077,0,3.4495,3.457,3.4584,3.4638,3.4668,3.4667,3.4724,3.4752,3.4811,3.4832,3.4816,3.4919,3.4948,3.503,3.505,3.5071,3.5087,3.5065,3.5157,3.5165,3.5173,3.5204,3.5215,3.5079,3.5078,3.5078,3.5078,0,3.4599,3.4651,3.469,3.4747,3.4781,3.4836,3.4859,3.4892,3.4897,3.4916,3.4985,3.502,3.5073,3.5092,3.5098,3.5175,3.5166,3.5153,3.5126,3.5186,3.5215,3.5227,3.5081,3.5081,3.508,3.508,0,0,3.4683,3.4747,3.4761,3.4788,3.4838,3.4879,3.4933,3.4986,3.5015,3.5055,3.5102,3.5171,3.516,3.5191,3.5199,3.5236,3.5302,3.5219,3.522,3.5235,3.5391,3.5402,3.5415,3.5299,3.5301,3.5303,3.5388,0,3.476,3.4859,3.4873,3.496,3.5008,3.5008,3.5056,3.5092,3.5111,3.5155,3.5176,3.5226,3.5207,3.5225,3.5262,3.5286,3.5334,3.528,3.5345,3.5347,3.5336,3.543,3.5441,3.552,3.5399,3.5401,3.5402,0,3.4865,3.4908,3.5,3.5045,3.5066,3.5109,3.516,3.5201,3.5242,3.5254,3.5288,3.5292,3.5349,3.5317,3.5397,3.536,3.5387,3.5403,3.5406,3.5415,3.538,3.5443,3.5545,3.5558,3.542,3.5419,3.5417,0,3.4919,3.5001,3.5067,3.5089,3.5142,3.5173,3.5197,3.5236,3.5267,3.531,3.5331,3.538,3.5408,3.5445,3.5463,3.5438,3.5542,3.5511,3.5554,3.5554,3.5578,3.5577,3.5689,3.5591,3.5591,3.5591,3.5591,0,3.5006,3.5063,3.5092,3.5133,3.5197,3.5212,3.5275,3.5297,3.5332,3.5378,3.5379,3.5422,3.5441,3.5486,3.55,3.5565,3.5576,3.5588,3.5592,3.559,3.5588,3.5609,3.5605,3.5594,3.5594,3.5593,3.5592,0,3.5079,3.5101,3.5173,3.5218,3.523,3.5276,3.5314,3.5354,3.5372,3.543,3.5444,3.5474,3.5527,3.5548,3.5613,3.5622,3.5698,3.5695,3.5684,3.5686,3.5729,3.5725,3.5859,3.5879,3.5766,3.5767,3.5768,0,3.5135,3.5179,3.5228,3.5259,3.5284,3.5333,3.5365,3.5381,3.5415,3.5465,3.5499,3.5552,3.5597,3.5682,3.571,3.576,3.576,3.5803,3.5768,3.5765,3.5764,3.5762,3.5767,3.5811,3.5812,3.5813,3.5814,0,3.5231,3.524,3.5287,3.5337,3.5376,3.5416,3.5455,3.548,3.5502,3.554,3.5595,3.5629,3.5696,3.575,3.5801,3.5825,3.5824,3.5824,3.5838,3.5837,3.583,3.5837,3.5705,3.5822,3.5821,3.5821,3.582,3.582,3.5299,3.5339,3.538,3.5432,3.5464,3.55,3.5541,3.5564,3.5611,3.5667,3.5673,3.5733,3.5773,3.5843,3.5869,3.5916,3.5904,3.5922,3.5928,3.5933,3.5937,3.5821,3.5925,3.5924,3.5924,3.5924,3.5924,0,3.5398,3.5425,3.5472,3.5528,3.5569,3.5563,3.5606,3.5641,3.5694,3.5732,3.5775,3.5839,3.5891,3.5922,3.5974,3.6006,3.6007,3.602,3.6019,3.6025,3.5943,3.5928,3.6018,3.6018,3.6018,3.6018,3.6018,3.6018,3.5455,3.5523,3.5536,3.5619,3.5645,3.5705,3.573,3.5764,3.5794,3.5866,3.591,3.5929,3.5965,3.6019,3.6067,3.6075,3.6095,3.6109,3.6116,3.604,3.603,3.6021,3.6007,3.6113,3.6113,3.6195,3.6195,3.6196]}]]